Location: ???? ??
(36.0534°N, 43.5630°E)
Time: 08:15:58
(UTC+00:00)

Cosmos 1536 Rocket - Pass Details

Date: 18 September 2019
Orbit: 604 x 633 km, 82.5° (Epoch: 14 October)

Event Time Altitude Azimuth Distance (km) Brightness Sun altitude
Rises 16:06:24 0° 350° (N) 2,866 7.3 -12.3°
Reaches altitude 10° 16:08:37 10° 349° (NNW) 1,957 6.4 -12.7°
Maximum altitude 16:12:56 72° 265° (W) 639 3.8 -13.6°
Drops below altitude 10° 16:17:12 10° 181° (S) 1,945 6.0 -14.4°
Sets 16:19:25 0° 180° (S) 2,846 6.8 -14.8°
